Home > Time Zones > World Clock > Weather > Sweden > Lund > Past weeks

Flag for Sweden Weather past 2 weeks in Lund, Sweden

Now
55 °F

Clear.


Feels Like: 53 °F
Forecast: 54 / 69 °F
Wind: 10 mph from East

Location: Malmo / Sturup

Current Time: Sep 16, 2014 at 11:56:31 PM

Latest Report: Sep 16, 2014 at 11:20 PM


Visibility: 10 mi

Pressure: 30.21 "Hg

Humidity: 94%

Dew point: 54 °F

Location of LundLocation

Historic Weather in Lund — Graph

°F

Lund temperature yesterday

Maximum temperature yesterday: 64 °F (at 11:20 AM)
Minimum temperature yesterday: 57 °F (at 8:20 PM)
Average temperature yesterday: 61 °F

Past Weeks' High & Low Weather Summary

 TemperatureHumidityPressure
High72 °F (Sep 6, 1:20 PM)100% (Sep 1, 11:50 PM)30.42 "Hg (Sep 1, 11:50 PM)
Low43 °F (Sep 3, 6:20 AM)52% (Sep 2, 4:20 PM)29.83 "Hg (Sep 9, 5:50 PM)
Average59 °F84%30.14 "Hg
* Reported Sep 1 10:20 PM — Sep 16 10:50 PM, Lund, Weather by CustomWeather, © 2014

Note: Actual official high and low records may vary slightly from our data, if they occured in-between our weather recording intervals... More about our weather records

Advertising

Lund weather history for previous 24 hours

 ConditionsComfort  
Time TempWeatherWind HumidityBarometerVisibility
10:50 PM
Sep 16
55 °FClear.10 mph94%30.24 "Hg10 mi
10:20 PM55 °FClear.12 mph94%30.24 "Hg10 mi
9:50 PM57 °FClear.13 mph88%30.21 "Hg10 mi
9:20 PM57 °FClear.13 mph88%30.24 "Hg10 mi
8:50 PM57 °FClear.13 mph88%30.24 "Hg10 mi
8:20 PM57 °FSunny.13 mph88%30.21 "Hg10 mi
7:50 PM59 °FSunny.12 mph82%30.21 "Hg10 mi
7:20 PM59 °FSunny.14 mph82%30.21 "Hg10 mi
6:50 PM61 °FSunny.14 mph77%30.21 "Hg10 mi
6:20 PM61 °FSunny.14 mph77%30.21 "Hg10 mi
5:50 PM63 °FPassing clouds.13 mph73%30.21 "HgN/A
5:20 PM63 °FSunny.16 mph73%30.21 "Hg10 mi
4:50 PM64 °FSunny.15 mph68%30.21 "Hg10 mi
4:20 PM64 °FPassing clouds.16 mph73%30.21 "HgN/A
3:50 PM64 °FPassing clouds.17 mph73%30.24 "HgN/A
3:20 PM64 °FSunny.16 mph73%30.24 "Hg10 mi
2:50 PM64 °FSunny.17 mph73%30.24 "Hg10 mi
2:20 PM64 °FSunny.17 mph68%30.24 "Hg10 mi
1:50 PM64 °FSunny.16 mph73%30.24 "Hg10 mi
1:20 PM64 °FSunny.16 mph68%30.24 "Hg10 mi
12:50 PM64 °FSunny.20 mph73%30.24 "Hg10 mi
12:20 PM64 °FSunny.17 mph68%30.24 "Hg10 mi
11:50 AM64 °FSunny.17 mph73%30.24 "Hg10 mi
11:20 AM64 °FSunny.20 mph73%30.24 "Hg10 mi
10:50 AM64 °FSunny.21 mph73%30.24 "Hg10 mi
10:20 AM63 °FSunny.16 mph77%30.24 "Hg10 mi
9:50 AM63 °FSunny.18 mph77%30.24 "Hg10 mi
9:20 AM61 °FSunny.17 mph83%30.24 "Hg10 mi
8:50 AM61 °FSunny.15 mph83%30.24 "Hg10 mi
8:20 AM59 °FSunny.15 mph88%30.24 "Hg10 mi
7:50 AM57 °FSunny.14 mph94%30.24 "Hg10 mi
7:20 AM57 °FClear.15 mph88%30.24 "Hg10 mi
6:50 AM57 °FClear.14 mph88%30.24 "Hg10 mi
6:20 AM57 °FClear.13 mph88%30.24 "Hg10 mi
5:50 AM57 °FClear.14 mph88%30.24 "Hg10 mi
5:20 AM57 °FClear.15 mph88%30.24 "Hg10 mi
4:50 AM57 °FClear.14 mph88%30.24 "Hg10 mi
4:20 AM57 °FClear.15 mph88%30.24 "Hg10 mi
3:50 AM57 °FClear.14 mph88%30.24 "Hg10 mi
3:20 AM57 °FClear.15 mph88%30.24 "Hg10 mi
2:50 AM57 °FClear.14 mph88%30.24 "Hg10 mi
2:20 AM57 °FClear.14 mph88%30.24 "Hg10 mi
1:50 AM57 °FClear.15 mph88%30.24 "Hg10 mi
1:20 AM57 °FClear.15 mph88%30.24 "Hg10 mi
12:50 AM57 °FClear.15 mph88%30.27 "Hg10 mi
12:20 AM57 °FClear.17 mph88%30.27 "Hg10 mi
11:50 PM
Sep 15
57 °FClear.17 mph88%30.27 "Hg10 mi
11:20 PM57 °FClear.16 mph88%30.27 "Hg10 mi
Weather by CustomWeather, © 2014

See weather overviewHow to use our weather pages